Regional Weather Roundup
Issued by NWS

Home | Current Version | Previous Version | Graphics & Text | Print | Product List | Glossary On
Versions: 1 2 3 4 5 6 7 8 9 10 11 12 13 14 15 16 17 18 19 20 21 22 23 24 25 26 27 28 29 30 31 32 33 34 35 36 37 38 39 40 41 42 43 44 45 46 47 48 49 50
000
ASUS44 KMEG 272300
RWRTN
TENNESSEE HOURLY STATE WEATHER ROUNDUP
NATIONAL WEATHER SERVICE MEMPHIS TN
500 PM CST SAT DEC 27 2014

TNZ002-004-019-021-049-052-054-088>092-280000-
WEST TENNESSEE

CITY           SKY/WX    TMP DP  RH WIND       PRES   REMARKS
MEMPHIS INTL   LGT RAIN  55  53  93 SE5       30.07F
NWS MEMPHIS      N/A    N/A N/A N/A MISG        N/A
JACKSON        LGT RAIN  51  49  92 S3        30.09F
DYERSBURG      CLOUDY    50  39  66 CALM      30.09F VSB 1/2
UNION CITY     CLOUDY    48  48 100 SE3       30.08F
PARIS          CLOUDY    48  48 100 S5        30.11R
LEXINGTON      CLOUDY    48  48 100 SE3       30.10F
SAVANNAH       CLOUDY    48  48 100 SE3       30.12S
$$

TNZ008-025-027-028-033-062-065-066-280000-
NORTH MIDDLE TENNESSEE

CITY           SKY/WX    TMP DP  RH WIND       PRES   REMARKS
NASHVILLE      LGT RAIN  49  47  93 CALM      30.15R
CLARKSVILLE    CLOUDY    49  48  97 SE7       30.12F FOG
COOKEVILLE     CLOUDY    50  46  87 CALM      30.15R
CROSSVILLE     CLOUDY    51  35  54 S7        30.16S
$$

TNZ061-075-076-078-094-096-097-280000-
SOUTH MIDDLE TENNESSEE

CITY           SKY/WX    TMP DP  RH WIND       PRES   REMARKS
FAYETTEVILLE   CLOUDY    52  41  66 MISG      30.13S
TULLAHOMA      CLOUDY    54  36  50 SE7       30.13F
WINCHESTER     CLOUDY    54  39  58 S6        30.15S
SHELBYVILLE    CLOUDY    50  48  93 NW6       30.15R
$$

TNZ017-018-042-046-047-280000-
NORTHEAST TENNESSEE

CITY           SKY/WX    TMP DP  RH WIND       PRES   REMARKS
TRI CITIES     CLOUDY    52  37  56 NW3       30.17S
ELIZABETHTON   CLOUDY    52  36  54 CALM      30.16S
$$

TNZ012-013-036-069-073-074-280000-
CENTRAL EAST TENNESSEE

CITY           SKY/WX    TMP DP  RH WIND       PRES   REMARKS
KNOXVILLE      CLOUDY    51  39  63 CALM      30.18R
OAK RIDGE      CLOUDY    52  39  61 VRB3      30.20R
GATLINBURG     MOCLDY    46  36  66 CALM      30.19R
$$

TNZ083-085-099-280000-
SOUTHEAST TENNESSEE

CITY           SKY/WX    TMP DP  RH WIND       PRES   REMARKS
CHATTANOOGA    CLOUDY    55  43  63 CALM      30.20R
$$

SKY/WX REPORTED AS FAIR MEANS FEW OR NO CLOUDS BELOW
12 THOUSAND FEET.



USA.gov is the U.S. government's official web portal to all federal, state and local government web resources and services.